Weather Service Report


602 
ASUS42 KTBW 111016
RWRFL 
FLORIDA REGIONAL WEATHER ROUNDUP
NATIONAL WEATHER SERVICE TAMPA BAY RUSKIN FL
500 AM EST THU FEB 11 2016

NOTE: "FAIR" INDICATES FEW OR NO CLOUDS BELOW 12,000 FEET WITH NO
SIGNIFICANT WEATHER AND/OR OBSTRUCTIONS TO VISIBILITY.


FLZ001>010-012>015-112-114-115-111100-
PANHANDLE FLORIDA
  
CITY           SKY/WX    TMP DP  RH WIND       PRES   REMARKS
PENSACOLA      CLEAR     40  36  86 N3        30.22S                  
PENSACOLA NAS  CLEAR     40  37  89 NW3       30.22R                  
MILTON NAS     CLEAR     31  30  96 SE3       30.22                   
CRESTVIEW      CLEAR     28  26  92 CALM      30.24S                  
DUKE FIELD     FAIR      31  27  88 CALM      30.22R                  
VALPARAISO     CLEAR     33  30  87 N5        30.22R WCI  29          
MARY ESTHER    CLEAR     35  32  90 N6        30.22R WCI  30          
TRI COUNTY     FAIR      31  29  92 CALM      30.25R                  
PANAMA CITY    FAIR      33  31  92 CALM      30.23R                  
TYNDALL AFB    CLEAR     41  38  90 CALM      30.25R                  
APALACHICOLA   CLEAR     36  34  92 CALM      30.25R                  

STATION/POSITION SKY/WX   TEMP    WIND        PRES    WAVE   SWELL
                          AIR SEA DIR/SP/G            HT/PER HT/PER
                          (F)     (DEG/KT/KT) (MB)    (FT/S) (FT/S)
30.1N   87.6W              58 64  260/ 17/ 21 1022.6R   4/ 5
28.8N   86.0W              61 68  260/ 14/ 16 1024.3R   3/ 5   2/ 7
PANAMA CITY BEAC           45 56   20/  7/  9 1023.8R
CAPE SAN BLAS    NOT AVBL
TOWER C          NOT AVBL
28.5N   84.5W              60 66  270/  8/ 12 1024.5R   4/ 7   3/ 7

$$
FLZ011-016>038-118-127-128-134-139-239-111100-
NORTH FLORIDA
  
CITY           SKY/WX    TMP DP  RH WIND       PRES   REMARKS
MARIANNA       PTCLDY    29  26  89 CALM      30.24S                  
TALLAHASSEE    CLEAR     30  24  78 CALM      30.25R                  
PERRY          CLEAR     30  27  86 CALM      30.28R                  
LIVE OAK         N/A     32  28  86 CALM      30.29R                  
CROSS CITY       N/A     29  26  89 CALM      30.29R                  
LAKE CITY      FAIR      30  27  86 CALM      30.27R                  
GAINESVILLE    CLEAR     30  26  85 CALM      30.29R                  
WILLISTON      FAIR      32  30  93 CALM      30.30R                  
KEYSTONE HEIGH   N/A     32  28  86 CALM      30.28R                  
PALATKA        FAIR      28  28 100 CALM      30.29S                  
MAYPORT NAS    CLEAR     40  22  48 W6        30.27R WCI  36          
JACKSONVILLE   CLEAR     30  24  78 CALM      30.27R                  
JAX NAS        CLEAR     36  24  62 SW3       30.29R                  
JAX CRAIG      CLEAR     36  21  54 SW5       30.28R WCI  32          
JAX CECIL      CLEAR     27  25  93 CALM      30.28R                  
FERNANDINA BEA FAIR      37  21  52 CALM      30.26R                  
ST AUGUSTINE   CLEAR     35  27  72 SW5       30.29R WCI  31          

STATION/POSITION SKY/WX   TEMP    WIND        PRES    WAVE   SWELL
                          AIR SEA DIR/SP/G            HT/PER HT/PER
                          (F)     (DEG/KT/KT) (MB)    (FT/S) (FT/S)
SHELL POINT                39      40/  2/  4 1023.1
KEATON BEACH               39      70/  4/  5 1024.9R
CEDAR KEY                  44      40/  4/  5 1025.6R
FERNANDINA                 39 51  280/  4/  5 1024.4R
30.7N   81.3W                 55                N/A     2/15   2/15
MAYPORT                    41 54  280/  6/  8 1024.3R
31.4N   80.9W              44 52  300/ 16/ 17 1024.4R   3/ 4
ST AUGUSTINE               38 54  300/  7/  8 1026.0F

$$
FLZ040-043>046-052-053-057-058-063-144-111100-
INTERIOR CENTRAL FLORIDA
  
CITY           SKY/WX    TMP DP  RH WIND       PRES   REMARKS
OCALA          CLEAR     28  25  86 CALM      30.28R                  
THE VILLAGES     N/A     36  32  87 CALM      30.19R                  
LEESBURG       CLEAR     40  35  83 N5        30.29R WCI  37          
SANFORD        PTCLDY    37  32  82 NW3       30.28R                  
ORLANDO EXEC   PTCLDY    43  34  70 CALM      30.28R                  
ORLANDO INTL   PTCLDY    40  33  76 CALM      30.29R                  
WINTER HAVEN   CLEAR     38  36  92 CALM      30.28R                  
LAKELAND       PTCLDY    36  34  93 CALM      30.27R                  
BARTOW         FAIR      34  34 100 CALM      30.28R                  
OKEECHOBEE     CLEAR     37  36  93 CALM      30.27S                  

$$
FLZ041-047-054-059-064-141-147-111100-
EAST CENTRAL FLORIDA
  
CITY           SKY/WX    TMP DP  RH WIND       PRES   REMARKS
DAYTONA BEACH  CLEAR     39  30  70 NW3       30.28S                  
DELAND           N/A     36  30  80 CALM      30.29S                  
JFK SPACE CTR  CLEAR     36  32  84 N7        30.27R WCI  30          
CAPE CANAVERAL CLEAR     43  35  73 NW7       30.26R WCI  38          
PATRICK AFB    CLEAR     44  36  72 NW9       30.27R WCI  39          
MELBOURNE      CLEAR     37  34  89 NW6       30.27R WCI  32          
VERO BEACH     CLEAR     40  35  83 NW7       30.27R WCI  35          
FT PIERCE      CLEAR     36  35  96 CALM      30.26R                  
STUART           N/A     45  36  70 NW6       30.26F WCI  41          

STATION/POSITION SKY/WX   TEMP    WIND        PRES    WAVE   SWELL
                          AIR SEA DIR/SP/G            HT/PER HT/PER
                          (F)     (DEG/KT/KT) (MB)    (FT/S) (FT/S)
28.5N   80.2W              52 69  310/ 17/ 23 1024.1R
28.9N   78.5W              60 72              1022.6R
TRIDENT PIER               45 62  290/  6/  9 1024.2R
28.4N   80.5W                 63                N/A     2/14
27.5N   80.2W                 69                N/A     4/14   2/14

$$
FLZ050-056-061-142-242-148-248-149-249-151-251-155-255-
160-260-111100-
WEST CENTRAL FLORIDA
  
CITY           SKY/WX    TMP DP  RH WIND       PRES   REMARKS
CRYSTAL RIVER  FAIR      32  32 100 CALM      30.29R                  
INVERNESS      FAIR      32  32 100 CALM      30.29R                  
BROOKSVILLE    CLEAR     32  30  92 CALM      30.29R                  
ZEPHYRHILLS    FAIR      32  31  96 CALM      30.28R                  
CLEARWATER AIR FAIR      43  41  93 CALM      30.26S                  
ST PETE CLEARW CLEAR     41  39  93 S3        30.27R                  
TAMPA INTL     CLEAR     44  39  82 CALM      30.27R                  
TAMPA EXEC     PTCLDY    37  36  93 CALM      30.28R                  
PLANT CITY     PTCLDY    39  37  93 CALM      30.29R                  
MACDILL AFB    CLEAR     40  39  97 E2        30.26R                  
PETER O KNIGHT CLEAR     46  45  93 CALM      30.27S                  
ST PETERSBURG  CLEAR     51  44  77 N3        30.25R                  
SARASOTA       CLEAR     42  40  92 CALM      30.26R                  
VENICE         FAIR      43  41  93 CALM      30.27S                  

STATION/POSITION SKY/WX   TEMP    WIND        PRES    WAVE   SWELL
                          AIR SEA DIR/SP/G            HT/PER HT/PER
                          (F)     (DEG/KT/KT) (MB)    (FT/S) (FT/S)
CEDAR KEY                  44      40/  4/  5 1025.6R
28.5N   84.5W              60 66  270/  8/ 12 1024.5R   4/ 7   3/ 7
27.3N   84.2W                 69                N/A     5/ 8
CLEARWATER BEACH           54 55  310/  9/ 10 1024.5R
MIDDLE TAMPA BAY           53     340/  7/  8 1024.7F
VENICE                     49 59   70/  5/  5 1024.4R

$$
FLZ066-069-070-075>078-162-262-165-265-111100-
SOUTHWEST FLORIDA AND KEYS
  
CITY           SKY/WX    TMP DP  RH WIND       PRES   REMARKS
PUNTA GORDA    CLEAR     41  41 100 CALM      30.28S                  
FT MYERS       CLEAR     44  42  93 CALM      30.26R                  
SOUTHWEST INTL CLEAR     46  42  86 CALM      30.27R                  
NAPLES         PTCLDY    45  43  93 CALM      30.26R                  
MARCO ISLAND   SUNNY     46  39  76 N3        30.25S                  
MARATHON       PTCLDY    55  47  74 N9        30.26R                  
KEY WEST NAS   PTCLDY    58  49  72 N10       30.26R                  
KEY WEST INTL  PTCLDY    58  50  75 N8        30.26R                  

STATION/POSITION SKY/WX   TEMP    WIND        PRES    WAVE   SWELL
                          AIR SEA DIR/SP/G            HT/PER HT/PER
                          (F)     (DEG/KT/KT) (MB)    (FT/S) (FT/S)
VENICE                     49 59   70/  5/  5 1024.4R
NAPLES                        63              1024.1F
26.0N   85.6W              64 79  330/  6/ 12 1025.1R   4/ 8   3/ 8
DRY TORTUGAS     NOT AVBL
SAND KEY                   60      30/ 12/ 14 1024.8R
LONG KEY                   55 63   10/  9/ 11 1025.4R
MOLASSES REEF              54 72   10/ 11/ 12 1024.3R

$$
FLZ067-068-071>074-168-172>174-111100-
SOUTHEAST FLORIDA 
  
CITY           SKY/WX    TMP DP  RH WIND       PRES   REMARKS
W PALM BEACH   PTCLDY    42  36  79 NW6       30.26S WCI  38          
FT LAUDER-EXEC CLOUDY    48  40  73 NW3       30.25R                  
FT LAUDERDALE  CLOUDY    49  40  71 NW6       30.25R                  
POMPANO BEACH  PTCLDY    47  42  83 NW8       30.25R WCI  43          
PEMBROKE PINES PTCLDY    48  39  71 NW6       30.27R                  
OPA LOCKA      CLOUDY    50  40  68 NW5       30.26R                  
MIAMI          PTCLDY    50  40  68 N7        30.26R                  
WEST KENDALL   CLOUDY    47  41  80 N5        30.26R WCI  45          
HOMESTEAD      PTCLDY    47  42  82 CALM      30.25S                  

STATION/POSITION SKY/WX   TEMP    WIND        PRES    WAVE   SWELL
                          AIR SEA DIR/SP/G            HT/PER HT/PER
                          (F)     (DEG/KT/KT) (MB)    (FT/S) (FT/S)
PORT EVERGLADES            51     310/ 10/ 14 1023.9R
VIRGINIA KEY               52 67  330/  8/ 12 1024.1F
LAKE WORTH                 47 73  300/  5/  7 1023.9R
SETTLEMENT POINT           60     340/ 14/ 17 1023.9R

$$

  

Return to Home page


Western Regional Climate Center, wrcc@dri.edu